Location: Gebenbach
(49.5378°N, 11.8735°E)
Time: 12:21:56
(UTC+00:00)

S3M - Pass Details

Date: 29 October 2020
Orbit: 950 x 1003 km, 83.0° (Epoch: 24 November)

Event Time Altitude Azimuth Distance (km) Brightness Sun altitude
Rises 17:14:00 0° 170° (S) 3,611 6.9 -13.3°
Reaches altitude 10° 17:16:32 10° 165° (SSE) 2,673 6.2 -13.7°
Maximum altitude 17:22:25 52° 91° (E) 1,184 4.1 -14.7°
Drops below altitude 10° 17:28:23 10° 18° (NNE) 2,715 6.1 -15.6°
Sets 17:30:58 0° 13° (NNE) 3,674 6.9 -16.0°
